Погода Игнасино

Погода Игнасино : погода сейчас, прогноз погоды и архив. Всё, что Вы хотите узнать о погоде Игнасино!

Хотите узнать прогноз погоды Игнасино? Тогда Вам сюда: Погода Игнасино

Поиск расширенной информации на нашем сайте:

Полезная информация: Свежая информация наращивание волос на трессах цена у нас.

Другие новости

Новости СМИ2

Главная страница сайта

Новости сайта

02.10.2013

Напоминаем, что на нашем новом сайте вы можете получить высокодетализированные прогнозы погоды по пунктам России, СНГ и мира (включающие важные для авиации метеовеличины, такие как направление и скорость ветра, видимость, явления погоды, количество и форма облачности, нижняя и верхняя граница облачности), а также ознакомиться с разнообразными материалами по авиационной метеорологии и подборкой полезных ссылок на эту тему.

Сайт Метеоцентр.Азия посвящён разработке технологий оптимизации авиаметеорологического обслуживания, включая проектирование и перспективное создание нескольких автоматизированных авиаметеорологических систем:
- система выпуска высокодетальных прогностических карт явлений погоды для нижнего воздушного пространства по России и ближнему зарубежью;
- система верификации прогнозов TAF (выпускаемых синоптиками официальных АМСГ РФ и ближнего зарубежья) и AUTOTAF (выпускаемых сайтом Метеоцентр.Азия) - выявление ошибок, онлайн-сопоставление с фактической погодой METAR, автоматическое внесение коррективов в прогнозы при резком отклонении фактической погоды от прогноза, подсчёт оправдываемости прогнозов по элементам и в целом;
- система обработки, анализа и отображения авиаметеорологической информации для применения провайдерами метеорологической информации.

Рекомендуем: Нижнее белье для полных красивое женское нижнее белье.

Погода Игнасино - сегодня

Время (UTC), дата Ветер
(°,м/с) 
Видим.   Явления Облачность Т
(°С)
Тd
(°С)
f(%) Тe
(°С)
Pmin
(гПа)
dP
(гПа)
Po
(мм)
O2
(г/м3)
Тmin Tmax R s Состояние
почвы
06 18.02.17 270 (З) 20000 м    ясно 
-15.7 -26.2 40 -18  1021.4  -3.6  737  317           
09 18.02.17 290 (З) 20000 м    1/0 верхняя 
[Ci sp]
-14.9 -27 35 -17  1019.6  -1.6  736  315           
12 18.02.17 020 (С) 20000 м    ясно 
-26 -32.6 54 -27  1021.4  736  329    -14.4       
15 18.02.17 360 (С) 20000 м    ясно 
-29.8 -34.3 65 -33  1021.8  -0.3  735  335           
18 18.02.17 350 (С) 20000 м    4/0 верхняя 
[Ci]
-32.9 -36.5 70 -34  1022.6  0.4  736  339           
21 18.02.17 340 (С) 20000 м    8/0 верхняя 
[Ci]
-34.2 -37.9 69 -35  1022.8  736  341           
00 19.02.17 тихо ()   20000 м    10/0 верхняя 
[Ci sp]
-33.2 -35.6 79 -33  1024.5  1.8  737  340  -34.5      12  равномерный
сухой снег
100% 
03 19.02.17 200 (Ю) 20000 м    10/0 верхняя 
[Cs]
-24.2 -31.5 51 -25  1023.2  0.2  737  328           
06 19.02.17 270 (З) 20000 м    8/0 верхняя 
[Ci]
-14.9 -26.1 38 -20  1020.2  -1.5  736  315           
09 19.02.17 300 (СЗ) 20000 м    ясно 
-13.9 -26.7 33 -16  1020.6  0.5  736  314           
12 19.02.17 350 (С) 20000 м    ясно 
-25.4 -29.6 68 -29  1024.3  1.8  738  330    -13.1       
15 19.02.17 350 (С) 20000 м    ясно 
-29 -32.2 74 -30  1026.1  1.2  739  335           
18 19.02.17 тихо ()   20000 м    ясно 
-31.5 -34.9 72 -32  1027.2  0.6  739  339           
21 19.02.17 020 (С) 20000 м    ясно 
-33.9 -37.6 69 -35  1028.9  1.2  740  342           
00 20.02.17 270 (З) 20000 м    1/0 верхняя 
[Ci fib]
-33.6 -35.9 80 -35  1030.8  1.9  741  343  -34.6      12  равномерный
сухой снег
100% 
03 20.02.17 160 (Ю) 20000 м    ясно 
-21.4 -27.7 57 -22  1027.9  -0.8  741  326           
06 20.02.17 300 (СЗ) 20000 м    ясно 
-9.3 -22.6 33 -12  1024.1  -1.8  740  310           
09 20.02.17 310 (СЗ) 20000 м    ясно 
-9.8 -23.4 32 -12  1023.5  -0.7  739  310           
12 20.02.17 010 (С) 20000 м    ясно 
-20.1 -25.2 64 -23  1025.2  0.1  739  323    -7.8       
15 20.02.17 360 (С) 20000 м    ясно 
-24.4 -27.6 75 -28  1025.6  -0.3  739  329           
18 20.02.17 350 (С) 20000 м    ясно 
-28.1 -30.9 77 -29  1026  -0.2  739  334           
21 20.02.17 350 (С) 20000 м    3/0 верхняя 
[Ci fib]
-29.3 -32.4 75 -33  1025.7  -0.5  738  335           
00 21.02.17 360 (С) 20000 м    6/0 верхняя 
[Cc]
-29.8 -33.5 70 -31  1025.6  -0.1  738  336  -31.1      12  равномерный
сухой снег
100% 
03 21.02.17 180 (Ю) 20000 м    10/0 верхняя 
[Cc]
-17.6 -24.3 56 -18  1022.6  -1  737  319           
06 21.02.17 190 (Ю) 20000 м    9/0 верхняя 
[Cc]
-8.4 -20.5 37 -8  1018.1  -3  735  307           
Время (UTC), дата Ветер
(°,м/с) 
Видим.   Явления Облачность Т
(°С)
Тd
(°С)
f(%) Тe
(°С)
Pmin
(гПа)
dP
(гПа)
Po
(мм)
O2
(г/м3)
Тmin Tmax R s Состояние
почвы

Для получения пояснительной информации подведите курсор к названию столбца.

ПОГОДА Игнасино - архив

Всё, что Вы хотите узнать о погоде Игнасино - удобно и подробно!

Выберите нужную дату (начиная с 1 января 2015* года) и нажмите кнопку "Найти".
Будут отображены архивные сводки погоды по пункту Игнасино, начиная с указанной даты.


Отображать данные в формате CSV (для использования в таблицах Excel)


Внимание! Наш архив погоды предназначен исключительно для личного некоммерческого использования в познавательных целях. Если Вам необходимы официальные справки о состоянии погоды (для производственных, юридических, коммерческих и т.п. целей), обращайтесь в органы Росгидромета.

*Примечание: данная дата относится к архиву по метеостанциям СССР (Россия, СНГ, Балтия).
Архив по метеостанциям Зарубежной Европы и Азии (кроме Китая) хранится 10 дней, по другим регионам земного шара (Китай, Африка, Америка, Австралия, Океания) - 1 день.

Игнасино - район местоположения метеостанции


Название, широта, долгота, высота метеостанции:
Игнасино 53.5°ш. 122.4°д. 295 м над ур. моря [Российская Федерация]

Дополнительная информация

В oтличие oт бoльшинства пoгoдных сайтoв мы публикуем пoдрoбную метеoинфoрмацию в детальнoм прoфессиoнальнoм фoрмате.

Характеристики температуры и влажнoсти вoздуха измеряются на высoте 2 м в тени вдали oт зданий и деревьев.
Скoрoсть ветра измеряется на высoте 10 м (на урoвне рoста челoвека скoрoсть ветра ниже в 1.5-2 раза). Если метеoстанция нахoдится в гoрoде или в лесу, тo скoрoсть ветра занижена на 2-4 м/с пo сравнению с oткрытым местoм. Скoрoсть ветра над акватoриями крупных рек и oзёр, а также на вершинах хoлмoв на 2-5 м/с выше, чем в oбычных услoвиях.
Атмoсфернoе давление в разных тoчках местнoсти мoжет значительнo oтличаться oт давления на метеoстанции, в зависимoсти oт услoвий рельефа (при пoдъёме на 10 м давление пoнижается примернo на 1 мм рт.ст.).